* Astronomy

Members Login
Username 
 
Password 
    Remember Me  
Post Info TOPIC: Asteroid 2011 CB50


L

Posts: 131433
Date:
Asteroid 2011 CB50
Permalink  
 


Orbital elements:
2011 CB50 PHA, Earth MOID = 0.0430 AU
Epoch 2011 Feb. 8.0 TT = JDT 2455600.5 MPC
M 2.17209 (2000.0) P Q
n 0.23787868 Peri. 165.54509 -0.81798317 -0.57063768
a 2.5796792 Node 339.15248 +0.50543422 -0.65267297
e 0.6031759 Incl. 11.77710 +0.27466304 -0.49838804
P 4.14 H 20.8 G 0.15 U 9

MPEC 2011 - C80


__________________
Page 1 of 1  sorted by
 
Quick Reply

Please log in to post quick replies.



Create your own FREE Forum
Report Abuse
Powered by ActiveBoard